Orange City, IA

3:23 AM CDT on October 22, 2017 (GMT -0500)
Orange City Municipal

Weather History for KORC - February, 2012

Change the Weather History Date:

Monday, February 13, 2012

  Actual Average Record
Temperature  
Mean Temperature 24 °F -  
Max Temperature 28 °F 33 °F 62 °F (1997)
Min Temperature 19 °F 17 °F -1 °F (1951)
Degree Days  
Heating Degree Days 40    
Moisture  
Dew Point 20 °F    
Average Humidity 83    
Maximum Humidity 100    
Minimum Humidity 46    
Precipitation  
Precipitation 0.18 in - - ()
Sea Level Pressure  
Sea Level Pressure 29.79 in    
Wind  
Wind Speed 8 mph (South)    
Max Wind Speed 22 mph    
Max Gust Speed 26 mph    
Visibility 3 miles    
Events Fog , Snow    
Averages and records for this station are not official NWS values.
T = Trace of Precipitation, MM = Missing Value Source: NWS Daily Summary

Daily Weather History Graph

Daily Weather History Graph

Search for Another Location

Airport or City:

Trip Planner

Search our weather history database for the weather conditions in past years. The results will help you decide how hot, cold, wet, or windy it might be!

Date:

Astronomy

Feb. 13, 2012 Rise Set
Actual Time 7:25 AM CST 5:52 PM CST
Civil Twilight 6:55 AM CST 6:21 PM CST
Nautical Twilight 6:22 AM CST 6:54 PM CST
Astronomical Twilight 5:49 AM CST 7:27 PM CST
Moon 12:01 AM CST (2/13) 10:12 AM CST (2/13)
Length of Visible Light 11h 25m
Length of Day
10h 27m
Waning Gibbous, 61% of the Moon is Illuminated
Feb 13
Waning Gibbous
Feb 14
Last Quarter
Feb 21
New
Feb 29
First Quarter
Mar 8
Full

Hourly Weather History & Observations

Time (CST) Temp. Windchill Dew Point Humidity Pressure Visibility Wind Dir Wind Speed Gust Speed Precip Events Conditions
12:15 AM 24.8 °F 16.9 °F 6.8 °F 46% 29.97 in 10.0 mi South 6.9 mph - N/A   Overcast
12:35 AM 24.8 °F 15.3 °F 6.8 °F 46% 29.96 in 10.0 mi South 9.2 mph - N/A   Overcast
12:55 AM 24.8 °F 15.3 °F 6.8 °F 46% 29.95 in 10.0 mi South 9.2 mph - N/A   Overcast
1:15 AM 24.8 °F 16.1 °F 8.6 °F 50% 29.95 in 10.0 mi South 8.1 mph - N/A   Overcast
1:35 AM 24.8 °F 16.9 °F 8.6 °F 50% 29.94 in 10.0 mi South 6.9 mph - N/A   Overcast
1:55 AM 26.6 °F 18.2 °F 8.6 °F 47% 29.93 in 10.0 mi South 8.1 mph - N/A   Overcast
2:15 AM 26.6 °F 18.2 °F 8.6 °F 47% 29.92 in 10.0 mi South 8.1 mph - N/A   Overcast
2:35 AM 26.6 °F 13.8 °F 8.6 °F 47% 29.91 in 10.0 mi South 17.3 mph - N/A   Overcast
2:55 AM 26.6 °F 12.4 °F 10.4 °F 51% 29.91 in 10.0 mi SSW 21.9 mph 25.3 mph N/A   Overcast
3:15 AM 26.6 °F 12.7 °F 12.2 °F 55% 29.90 in 10.0 mi SSW 20.7 mph 26.5 mph N/A   Overcast
3:35 AM 24.8 °F 10.3 °F 15.8 °F 69% 29.89 in 10.0 mi SSW 20.7 mph - N/A   Overcast
3:55 AM 24.8 °F 12.4 °F 17.6 °F 74% 29.88 in 10.0 mi South 15.0 mph - N/A   Overcast
4:15 AM 23.0 °F 11.7 °F 19.4 °F 86% 29.88 in 5.0 mi South 11.5 mph - N/A Snow Light Snow
4:35 AM 23.0 °F 11.7 °F 21.2 °F 93% 29.87 in 1.8 mi South 11.5 mph - N/A Snow Light Snow
4:55 AM 23.0 °F 11.7 °F 19.4 °F 86% 29.87 in 0.8 mi South 11.5 mph - N/A Snow Snow
5:15 AM 23.0 °F 13.1 °F 21.2 °F 93% 29.86 in 0.8 mi South 9.2 mph - N/A Snow Snow
5:35 AM 23.0 °F 13.9 °F 21.2 °F 93% 29.85 in 0.5 mi South 8.1 mph - N/A Snow Heavy Snow
5:55 AM 23.0 °F 13.1 °F 21.2 °F 93% 29.84 in 0.8 mi South 9.2 mph - N/A Snow Snow
6:15 AM 23.0 °F 14.7 °F 21.2 °F 93% 29.84 in 0.8 mi South 6.9 mph - N/A Snow Snow
6:35 AM 23.0 °F 14.7 °F 21.2 °F 93% 29.83 in 0.8 mi SSE 6.9 mph - N/A Snow Snow
6:55 AM 23.0 °F 13.9 °F 21.2 °F 93% 29.82 in 1.0 mi SSE 8.1 mph - N/A Snow Snow
7:15 AM 23.0 °F 13.9 °F 21.2 °F 93% 29.82 in 1.0 mi SSE 8.1 mph - N/A Snow Snow
7:35 AM 23.0 °F 13.9 °F 21.2 °F 93% 29.81 in 1.2 mi SSE 8.1 mph - N/A Snow Light Snow
7:55 AM 23.0 °F 14.7 °F 21.2 °F 93% 29.81 in 0.8 mi SSE 6.9 mph - N/A Snow Light Snow
8:15 AM 23.0 °F 14.7 °F 21.2 °F 93% 29.80 in 1.0 mi SSE 6.9 mph - N/A Snow Light Snow
8:35 AM 23.0 °F 14.7 °F 21.2 °F 93% 29.80 in 1.0 mi SSE 6.9 mph - N/A Snow Light Snow
8:55 AM 24.8 °F 16.9 °F 21.2 °F 86% 29.79 in 1.0 mi SSE 6.9 mph - N/A Snow Light Snow
9:15 AM 24.8 °F 16.9 °F 21.2 °F 86% 29.79 in 1.2 mi SSE 6.9 mph - N/A Snow Light Snow
9:35 AM 24.8 °F 16.1 °F 21.2 °F 86% 29.79 in 1.5 mi SSE 8.1 mph - 0.01 in Snow Light Snow
9:55 AM 24.8 °F 16.1 °F 21.2 °F 86% 29.78 in 2.5 mi South 8.1 mph - 0.01 in Snow Light Snow
10:15 AM 24.8 °F 16.1 °F 21.2 °F 86% 29.78 in 3.0 mi South 8.1 mph - N/A Snow Light Snow
10:35 AM 24.8 °F 16.9 °F 21.2 °F 86% 29.78 in 2.0 mi South 6.9 mph - 0.01 in Snow Light Snow
10:55 AM 24.8 °F 15.3 °F 21.2 °F 86% 29.77 in 2.0 mi South 9.2 mph - 0.01 in Snow Light Snow
11:15 AM 26.6 °F 18.2 °F 23.0 °F 86% 29.76 in 5.0 mi South 8.1 mph - N/A Snow Light Snow
11:35 AM 26.6 °F 17.5 °F 24.8 °F 93% 29.76 in 2.5 mi South 9.2 mph - N/A Snow Light Snow
11:55 AM 26.6 °F 19.1 °F 24.8 °F 93% 29.75 in 3.0 mi South 6.9 mph - N/A Snow Light Snow
12:15 PM 26.6 °F 18.2 °F 24.8 °F 93% 29.74 in 4.0 mi South 8.1 mph - N/A Snow Light Snow
12:35 PM 26.6 °F 18.2 °F 23.0 °F 86% 29.73 in 2.0 mi South 8.1 mph - N/A Snow Light Snow
12:55 PM 26.6 °F 18.2 °F 24.8 °F 93% 29.72 in 1.2 mi South 8.1 mph - N/A Snow Light Snow
1:15 PM 26.6 °F 19.1 °F 24.8 °F 93% 29.71 in 0.8 mi South 6.9 mph - N/A Snow Light Snow
1:35 PM 28.4 °F 20.4 °F 24.8 °F 86% 29.71 in 0.8 mi South 8.1 mph - 0.01 in Snow Light Snow
1:55 PM 28.4 °F 20.4 °F 24.8 °F 86% 29.70 in 1.5 mi SSW 8.1 mph - 0.03 in Snow Light Snow
2:15 PM 28.4 °F 21.2 °F 24.8 °F 86% 29.70 in 1.8 mi SSW 6.9 mph - 0.02 in Snow Light Snow
2:35 PM 28.4 °F 21.2 °F 24.8 °F 86% 29.69 in 3.0 mi SSW 6.9 mph - 0.04 in Snow Light Snow
2:55 PM 28.4 °F 23.3 °F 24.8 °F 86% 29.69 in 1.5 mi SSW 4.6 mph - 0.06 in Snow Light Snow
3:15 PM 28.4 °F 23.3 °F 24.8 °F 86% 29.69 in 1.0 mi SSW 4.6 mph - N/A Snow Light Snow
3:35 PM 28.4 °F 23.3 °F 24.8 °F 86% 29.69 in 1.0 mi SSW 4.6 mph - 0.01 in Snow Light Snow
3:55 PM 28.4 °F 24.6 °F 24.8 °F 86% 29.69 in 1.0 mi South 3.5 mph - 0.03 in Snow Light Snow
4:15 PM 28.4 °F 24.6 °F 24.8 °F 86% 29.69 in 1.2 mi SSW 3.5 mph - 0.01 in Snow Light Snow
4:35 PM 28.4 °F 24.6 °F 26.6 °F 93% 29.69 in 1.0 mi SSW 3.5 mph - 0.02 in Snow Light Snow
4:55 PM 26.6 °F - 24.8 °F 93% 29.69 in 0.8 mi Calm Calm - 0.02 in Snow Light Snow
5:15 PM 26.6 °F - 24.8 °F 93% 29.69 in 0.8 mi Calm Calm - 0.01 in Snow Light Snow
5:35 PM 26.6 °F - 24.8 °F 93% 29.69 in 1.2 mi Calm Calm - 0.01 in Snow Light Snow
5:55 PM 26.6 °F - 24.8 °F 93% 29.69 in 1.5 mi Calm Calm - 0.01 in Snow Light Snow
6:15 PM 26.6 °F - 24.8 °F 93% 29.70 in 2.0 mi Calm Calm - N/A Snow Light Snow
6:35 PM 26.6 °F - 24.8 °F 93% 29.70 in 3.0 mi Calm Calm - 0.01 in Snow Light Snow
6:55 PM 24.8 °F - 24.8 °F 100% 29.70 in 3.0 mi Calm Calm - 0.01 in Snow Light Snow
7:15 PM 24.8 °F - 23.0 °F 93% 29.70 in 0.8 mi Calm Calm - N/A   Overcast
7:35 PM 24.8 °F - 23.0 °F 93% 29.70 in 0.2 mi Calm Calm - N/A Fog Light Freezing Fog
7:55 PM 21.2 °F - 19.4 °F 93% 29.70 in 0.2 mi Calm Calm - N/A Fog Light Freezing Fog
8:15 PM 21.2 °F - 19.4 °F 93% 29.70 in 0.2 mi Calm Calm - N/A Fog Light Freezing Fog
8:35 PM 19.4 °F - 17.6 °F 93% 29.71 in 0.2 mi Calm Calm - N/A Fog Light Freezing Fog
8:55 PM 21.2 °F - 19.4 °F 93% 29.71 in 0.2 mi Calm Calm - N/A Fog Light Freezing Fog
9:15 PM 21.2 °F - 19.4 °F 93% 29.71 in 0.2 mi Calm Calm - N/A Fog Light Freezing Fog
9:35 PM 21.2 °F - 21.2 °F 100% 29.71 in 0.8 mi Calm Calm - N/A   Overcast
9:55 PM 23.0 °F - 21.2 °F 93% 29.71 in 7.0 mi Calm Calm - N/A   Overcast
10:15 PM 23.0 °F 18.4 °F 21.2 °F 93% 29.71 in 7.0 mi West 3.5 mph - N/A   Overcast
10:35 PM 23.0 °F - 21.2 °F 93% 29.71 in 5.0 mi Calm Calm - N/A   Overcast
10:55 PM 23.0 °F - 21.2 °F 93% 29.71 in 5.0 mi Calm Calm - N/A   Overcast
11:15 PM 23.0 °F - 21.2 °F 93% 29.71 in 5.0 mi Calm Calm - N/A   Overcast
11:35 PM 24.8 °F 19.1 °F 21.2 °F 86% 29.71 in 4.0 mi WSW 4.6 mph - N/A   Overcast
11:55 PM 21.2 °F 14.9 °F 19.4 °F 93% 29.71 in 0.2 mi West 4.6 mph - N/A Fog Light Freezing Fog